Location: Treviso
(45.6669°N, 12.2430°E)
Time: 07:33:22
(UTC+01:00)

ISS - Pass Details

Date: 15 November 2018
Orbit: 401 x 409 km, 51.6° (Epoch: 21 November)

Event Time Altitude Azimuth Distance (km) Brightness Sun altitude
Exits shadow 04:55:16 18° 159° (SSE) 1,068 -1.5 -23.5°
Drops below altitude 10° 04:56:20 10° 149° (SSE) 1,456 -0.6 -23.3°
Sets 04:58:30 0° 141° (SE) 2,314 0.6 -22.9°
